Wind_Speed
3 3 1 4 5 6 7 6 6 5 5 4 3 2 3 3 4 6 6 6 2 4 4 5 6 6 6 6 7 7 7 8 9 8 8 8 8 7 8 9 9 8 7 4 7 10 12 14 13 13 18 20 21 20 21 22 24 24 24 23 22 21 20 18 16 16 15 14 12 11 12 12 12 12 11 10 9 7 6 6 5 5 5 6 6 6
5 3 5 8 9 8 6 5 5 4 3 3 2 2 3 3 5 7 5 6 2 3 2 2 6 4 5 5 5 7 8 9 10 10 9 10 9 8 8 10 10 7 4 3 5 8 12 13 13 14 16 19 19 18 19 22 24 24 24 25 24 23 21 18 17 18 17 15 13 12 13 13 13 12 10 9 8 6 6 5 5 4 4 4 5 6
4 2 9 9 6 5 4 4 5 4 3 3 2 2 2 3 4 7 5 5 4 2 1 3 6 3 6 3 4 4 6 5 5 7 7 9 10 9 10 10 9 7 4 5 5 8 12 14 14 15 15 16 16 17 19 22 23 24 24 25 25 24 22 19 19 20 17 15 13 12 13 13 12 10 8 7 6 5 4 4 3 2 2 3 4 6
0 5 8 5 7 6 2 3 7 4 2 3 3 3 2 4 0 3 4 5 5 2 3 5 6 3 5 1 2 3 2 1 4 6 5 7 8 7 8 8 8 9 7 7 6 7 11 14 15 16 16 14 14 16 20 22 23 25 27 28 27 25 23 21 22 21 18 16 13 12 13 11 10 8 7 6 6 6 4 3 2 2 3 3 2 4
5 6 2 6 7 7 4 3 6 5 1 2 4 5 3 5 4 4 4 5 5 4 4 5 5 4 4 1 4 4 2 1 3 6 6 6 6 4 5 6 7 8 7 8 8 6 7 11 14 16 17 17 16 18 21 22 23 27 29 30 29 26 24 24 24 22 18 16 14 14 13 11 10 9 9 8 8 7 6 4 3 4 5 4 2 3
7 6 4 6 4 5 6 4 5 7 2 4 4 8 7 5 4 3 3 5 4 4 3 5 5 3 5 3 4 3 3 1 1 4 7 6 5 5 5 6 7 7 7 8 7 5 6 9 12 15 18 19 19 21 22 23 25 28 30 30 29 28 27 26 24 21 18 15 15 15 15 14 13 13 12 11 10 9 7 6 5 5 6 5 4 3
4 2 4 5 4 4 4 4 5 7 5 1 5 8 7 5 4 1 2 4 2 1 2 4 5 1 5 4 4 4 3 4 3 3 5 5 6 6 6 6 7 7 7 7 6 5 7 9 11 13 17 20 22 23 23 24 25 27 30 30 30 29 29 26 23 21 17 15 15 15 16 16 16 15 14 11 10 9 8 8 7 6 5 5 4 3
4 2 3 4 5 5 3 4 6 8 8 3 5 6 7 6 5 4 4 4 2 2 2 5 5 4 1 4 5 4 2 4 5 5 5 5 6 6 6 6 7 8 8 7 7 6 7 10 13 14 18 21 22 23 24 25 25 26 27 29 30 29 27 26 24 21 18 17 17 16 16 16 15 14 13 12 10 9 9 9 8 6 5 4 3 3
3 3 2 4 5 2 4 5 7 10 6 5 5 7 6 5 5 4 5 3 1 1 2 6 4 4 2 5 5 4 1 4 7 7 7 6 7 7 7 7 7 8 7 7 7 7 8 11 15 17 18 19 21 23 24 21 14 10 12 17 23 27 26 25 24 22 19 17 17 18 18 17 15 12 12 12 11 10 9 8 7 6 5 4 4 3
2 4 5 6 4 4 5 5 9 10 4 4 6 6 5 5 5 5 5 3 3 3 3 6 3 3 3 5 4 4 2 4 7 7 6 7 7 7 7 7 7 7 6 6 6 7 9 13 16 16 16 17 18 16 10 12 16 15 12 13 18 24 26 25 24 23 21 18 18 18 18 17 15 14 14 13 11 10 9 7 7 7 6 5 5 6
3 2 2 4 3 5 4 2 4 5 3 5 6 6 6 6 5 4 3 4 4 2 5 6 2 4 1 4 2 1 2 4 6 7 6 6 7 8 7 7 8 7 6 6 6 6 9 13 15 15 15 15 11 14 23 25 20 14 14 20 20 19 20 22 22 22 21 19 18 17 17 16 15 15 15 15 13 11 9 8 8 7 7 7 6 7
6 4 2 3 2 4 5 4 2 2 3 5 5 5 4 4 5 4 4 4 4 2 5 5 2 4 3 3 3 4 6 6 5 7 8 6 7 7 7 7 7 7 7 6 6 6 7 9 11 13 14 11 16 23 20 16 14 15 18 23 21 17 18 20 21 21 20 19 18 17 17 16 14 14 15 15 13 12 10 9 8 8 8 7 7 8
4 3 4 5 2 4 5 4 3 5 4 5 5 5 5 2 3 2 3 1 2 4 3 4 3 2 3 4 4 5 7 7 6 7 8 8 8 6 5 6 6 6 6 6 6 6 6 7 9 12 12 14 21 21 16 16 21 25 28 30 26 19 17 19 21 21 21 20 20 19 18 17 15 14 14 13 13 13 11 9 9 8 8 8 8 7
3 5 4 3 3 2 6 5 2 1 0 4 5 4 4 3 3 1 2 1 2 4 3 4 3 1 3 3 2 4 6 7 6 6 6 6 6 3 4 5 5 5 4 3 2 1 2 4 6 9 12 17 21 19 18 19 23 28 31 30 22 16 16 19 20 21 21 21 20 20 20 18 16 15 14 13 13 12 11 9 8 7 6 6 6 6
2 3 3 3 2 1 3 5 6 5 3 3 4 5 5 4 4 3 3 2 3 2 2 4 1 2 2 2 4 5 6 5 4 4 2 2 2 6 8 8 8 8 7 7 7 7 7 5 8 9 9 16 20 19 20 21 24 28 27 22 17 17 21 22 20 20 20 20 21 22 22 20 17 16 14 13 13 12 10 8 7 6 5 4 4 5
3 4 6 4 1 2 3 2 5 6 3 1 2 5 3 4 5 3 3 4 4 2 1 1 1 2 2 3 5 4 5 5 5 5 5 8 7 8 9 8 8 7 6 7 8 8 6 9 10 15 11 10 15 18 21 21 24 26 25 24 22 22 23 21 19 20 20 21 23 23 23 20 18 17 15 14 14 12 10 7 6 6 4 3 3 4
3 4 6 4 2 2 3 3 3 3 3 1 2 3 4 4 7 6 2 1 3 4 1 1 2 3 2 2 5 5 6 5 6 5 4 6 8 9 9 7 8 7 6 6 6 8 5 5 2 14 13 8 12 17 20 20 21 23 26 28 25 20 21 22 21 21 21 22 22 22 22 20 18 19 17 15 14 12 9 7 6 5 5 3 3 3
4 2 6 1 2 1 1 3 4 2 4 5 3 5 3 2 5 5 3 3 4 3 3 2 1 3 1 1 4 5 3 3 4 4 4 4 5 7 6 4 6 6 7 8 4 5 7 1 4 10 16 15 18 22 22 19 19 22 27 29 24 19 22 25 23 22 22 22 22 21 22 21 19 20 18 14 13 12 9 7 7 6 5 4 3 4
4 0 7 2 1 4 5 6 4 5 3 4 4 3 3 3 2 2 3 2 2 2 2 2 1 2 2 3 3 1 3 4 3 3 4 5 5 6 5 4 5 5 5 6 5 3 3 3 3 5 11 16 21 23 23 21 20 22 27 29 26 21 23 26 22 20 21 21 22 21 21 21 20 21 19 15 13 15 13 10 9 7 5 4 4 4
3 2 4 3 1 2 5 4 2 3 4 4 3 3 2 2 4 2 3 3 4 4 2 1 2 2 4 4 4 5 7 6 4 3 2 3 4 4 4 4 4 5 5 5 5 3 2 3 2 3 9 16 21 21 19 19 18 20 25 28 26 22 23 25 21 19 20 18 18 20 20 20 21 23 22 18 16 18 16 12 11 9 6 5 4 5
3 3 3 4 3 2 1 0 3 4 2 3 2 2 2 2 3 2 2 2 4 4 3 2 1 4 5 3 4 5 7 7 5 2 2 1 4 4 5 6 4 5 6 5 5 4 3 4 5 7 10 15 18 17 16 16 15 17 23 27 26 23 23 25 21 19 20 18 17 20 21 20 22 24 24 21 19 19 16 12 12 11 9 7 6 6
2 3 3 2 4 2 1 3 2 4 5 5 3 2 3 3 4 4 2 1 2 4 4 5 2 5 5 3 4 6 5 6 4 3 1 2 3 4 3 5 5 5 6 5 5 4 4 5 5 7 10 12 14 14 14 15 15 16 20 24 25 24 24 24 21 19 21 22 21 21 19 18 19 22 24 21 20 20 17 14 13 12 12 11 9 9
3 4 3 1 1 1 3 4 3 1 4 6 4 3 4 3 4 5 4 3 2 2 2 4 2 4 5 4 4 5 4 4 4 5 3 2 3 4 3 4 5 6 5 5 5 4 5 6 6 7 9 10 11 12 13 14 13 15 17 18 20 20 20 20 18 17 20 24 25 23 19 16 16 20 21 20 20 21 18 15 14 13 14 15 14 13
1 4 4 1 3 4 4 4 4 4 5 6 4 2 3 2 2 5 5 3 4 3 2 3 1 4 5 5 4 4 1 3 5 5 4 2 3 4 5 5 5 5 5 5 5 4 6 7 8 7 8 8 8 9 10 11 10 11 12 13 14 15 15 16 16 17 19 22 25 24 21 17 16 18 20 19 21 22 18 16 16 14 14 17 17 16
0 2 4 3 2 3 3 3 5 5 4 3 2 2 2 3 4 3 2 3 2 4 4 5 3 5 4 5 6 7 6 6 5 5 5 3 3 4 4 5 5 5 5 5 5 5 6 6 6 7 6 6 6 5 5 5 6 8 9 10 11 12 12 13 15 16 18 19 21 22 21 18 16 16 18 20 22 23 19 16 16 14 14 14 14 15
3 2 3 5 4 4 3 3 3 1 2 1 1 3 3 4 4 2 2 4 2 3 3 4 4 4 4 6 9 10 8 7 6 6 6 5 4 4 4 4 4 4 5 5 5 5 4 4 4 5 6 6 6 5 6 5 4 6 7 8 10 11 12 12 13 14 15 16 17 18 19 17 14 14 17 20 21 22 19 17 16 13 11 12 13 13
5 3 2 5 4 4 5 4 3 2 3 1 1 3 4 2 2 3 4 2 4 4 1 3 4 2 4 8 9 10 8 6 6 6 5 5 5 5 4 4 5 5 5 5 5 5 5 5 6 7 7 6 6 7 8 8 6 7 9 9 9 11 12 13 13 14 14 14 14 16 16 15 14 15 17 19 21 21 20 19 16 13 14 18 18 16
6 3 3 5 5 2 1 0 2 4 4 2 1 3 4 4 5 6 4 1 3 6 1 5 2 5 3 7 8 8 8 6 6 6 5 5 5 5 5 6 7 7 6 6 7 6 6 6 7 9 10 9 8 8 9 11 9 8 9 10 10 11 11 13 14 13 13 13 14 15 16 16 15 15 15 17 19 21 21 20 16 14 17 19 17 17
6 2 2 4 5 6 4 6 7 6 4 4 4 4 4 6 7 6 3 1 2 5 4 3 5 5 2 6 6 6 6 5 5 5 5 5 6 6 7 8 8 8 8 8 7 7 7 6 6 9 11 11 11 10 11 12 11 10 10 10 10 10 10 11 13 13 13 13 14 15 15 15 15 15 16 17 19 20 19 17 15 14 15 14 14 14
5 1 2 5 5 6 6 6 7 7 5 5 6 6 5 8 8 6 3 2 3 5 5 7 11 6 3 4 5 5 4 3 4 6 8 8 7 7 9 8 8 8 7 7 7 6 7 6 7 10 12 14 14 14 13 13 12 11 10 9 9 9 10 10 12 13 13 13 13 13 14 14 15 16 18 19 20 20 17 14 13 14 14 14 15 14
4 2 3 5 5 4 6 4 5 5 4 4 5 5 5 8 8 6 4 3 5 5 4 8 11 6 2 3 4 5 4 6 9 10 10 8 6 8 10 9 8 8 7 7 6 6 6 7 8 11 13 16 17 17 15 14 14 14 12 9 8 7 9 10 11 12 12 13 13 13 14 14 14 15 18 19 18 17 15 13 14 14 14 14 14 14
4 3 2 5 4 2 3 2 4 5 6 4 3 4 5 5 5 3 2 2 2 4 5 6 7 3 1 2 4 6 8 11 11 10 8 7 7 9 10 8 7 7 7 6 6 6 6 6 8 10 13 17 20 21 19 16 15 16 14 10 8 7 7 8 9 10 11 11 11 12 13 13 12 12 14 14 14 14 13 13 12 12 11 9 8 8
3 4 3 3 4 2 0 3 5 5 5 2 2 2 3 3 5 4 3 4 3 2 5 4 4 4 1 2 5 8 11 11 9 7 7 7 7 9 8 8 7 7 6 6 6 6 6 6 8 11 14 17 20 21 22 21 20 19 17 13 10 7 6 6 5 5 6 6 6 6 7 8 7 7 8 9 9 9 10 10 9 8 7 5 5 6
3 4 3 2 3 4 1 2 2 3 3 3 5 3 1 3 5 7 5 3 5 3 3 3 4 4 3 5 7 9 9 8 7 6 6 6 6 8 8 8 8 8 8 8 8 7 9 10 10 12 16 18 19 20 20 21 21 21 19 17 14 11 8 6 4 4 3 3 3 3 4 5 5 6 7 7 7 8 8 8 7 7 7 7 7 8
3 4 2 2 4 4 1 4 4 2 4 3 5 2 4 5 7 10 8 5 6 5 4 6 6 5 5 5 6 8 8 7 7 8 8 7 6 7 8 8 8 9 9 9 9 10 14 16 16 16 17 18 18 18 18 18 18 18 18 18 17 16 14 11 7 5 4 3 3 3 5 5 6 7 7 8 8 9 9 9 9 9 9 9 10 11
4 3 2 2 3 3 2 3 3 3 3 2 4 3 3 3 4 7 7 5 5 4 3 5 4 3 3 3 3 4 5 5 7 8 8 7 6 6 7 6 6 7 7 6 7 10 13 15 16 17 17 17 16 17 18 16 15 15 16 17 17 16 15 14 13 12 10 7 4 2 2 4 6 8 8 9 10 11 11 11 11 10 10 9 10 10
4 3 2 2 1 3 4 2 0 3 3 1 1 2 1 1 1 3 4 2 3 3 1 3 4 2 1 1 2 1 1 3 6 6 6 6 6 5 5 5 5 6 6 7 8 10 11 14 15 16 16 17 16 17 17 15 11 11 11 12 13 12 11 12 13 13 13 11 8 5 3 1 4 7 9 10 11 11 12 11 11 10 9 8 8 7
4 2 3 3 2 3 5 3 2 3 1 4 3 2 1 2 3 4 5 1 3 4 1 3 4 3 3 3 4 3 3 5 5 4 5 5 5 5 6 7 8 8 9 11 12 13 14 15 16 16 17 17 17 16 15 13 10 9 9 9 9 8 7 8 7 6 7 9 7 7 7 5 2 2 5 7 9 9 10 11 10 9 8 7 7 7
7 3 3 4 2 2 5 4 3 2 3 4 4 5 5 2 4 4 5 1 3 3 3 3 5 3 3 3 3 2 4 4 0 4 4 5 5 5 5 7 10 12 12 12 13 13 14 14 14 15 16 16 16 16 15 13 11 10 10 11 10 8 8 7 4 4 4 6 5 4 5 6 5 3 1 4 7 8 8 9 9 8 7 7 7 5
7 5 4 4 2 2 4 3 2 2 2 3 4 6 5 1 4 6 2 4 3 2 3 3 5 3 2 2 3 4 4 3 4 4 4 4 5 6 6 7 10 12 13 14 13 13 12 13 14 14 14 13 13 13 13 13 11 10 10 11 11 11 11 9 7 8 9 8 5 6 7 6 4 2 1 1 3 5 6 6 6 6 6 6 5 4
4 3 2 3 3 3 4 2 0 2 3 2 4 6 5 1 4 4 4 6 1 3 3 2 3 1 2 3 4 3 2 2 2 2 3 4 5 6 8 10 11 12 13 15 16 16 15 13 13 12 11 10 9 10 11 11 10 10 11 11 10 10 10 9 8 8 11 12 12 12 12 11 9 8 7 5 4 3 4 5 6 6 6 6 6 6
2 3 2 2 3 2 3 3 1 2 2 2 3 6 4 2 3 4 4 4 2 2 2 2 2 1 3 4 3 1 1 2 3 3 4 5 4 6 9 12 13 15 16 16 17 17 17 15 14 12 11 9 9 9 10 10 9 9 9 10 9 8 8 7 8 7 8 9 11 14 15 14 13 13 12 10 9 8 8 7 8 8 8 7 7 7
1 2 2 1 1 2 3 3 2 1 2 4 3 3 3 2 4 3 1 1 2 2 2 2 1 1 1 3 3 2 3 4 3 3 4 4 4 5 8 10 11 13 15 17 17 17 17 16 15 14 12 10 9 10 10 10 11 10 9 9 9 9 10 10 10 9 8 7 7 8 10 11 14 15 15 14 15 17 18 16 15 14 13 12 10 9
1 2 2 1 0 2 2 1 2 3 4 4 1 2 2 2 2 2 2 2 1 2 2 2 2 1 1 2 3 3 3 3 3 3 4 4 4 5 7 8 9 11 13 14 16 16 17 17 16 15 13 11 10 11 10 11 12 12 11 11 11 11 12 12 13 12 11 10 9 8 7 6 8 11 13 14 16 18 18 19 18 17 15 14 12 12
1 2 3 1 1 2 2 2 3 2 3 4 4 4 3 2 2 2 3 2 0 0 1 1 2 3 3 3 4 3 2 3 4 3 3 4 4 6 7 9 10 11 12 14 15 16 17 17 17 16 15 13 11 11 11 12 13 13 12 12 11 11 12 13 14 14 13 12 11 10 9 8 6 6 7 9 12 14 15 16 16 16 15 14 14 14
0 1 3 3 2 3 4 3 2 1 1 2 3 2 3 3 1 2 4 3 1 1 2 1 1 2 3 3 3 4 4 5 6 5 5 5 5 7 10 11 11 12 13 14 14 15 16 17 16 16 15 14 13 12 12 12 13 13 12 11 10 11 12 14 15 15 15 15 14 13 12 12 10 8 7 6 7 9 11 13 14 15 15 15 16 15
2 1 3 3 3 3 2 2 2 1 1 1 2 2 3 3 2 2 3 2 2 3 2 1 1 2 3 4 4 4 5 5 6 6 6 5 6 9 12 13 14 15 15 15 15 15 15 16 16 16 16 15 14 13 12 12 10 10 11 12 12 13 14 14 16 17 18 18 18 17 16 15 14 13 11 9 8 9 9 10 12 14 16 17 17 16
1 2 4 3 2 2 2 4 2 0 2 2 1 2 2 3 3 3 3 3 4 4 4 3 3 3 2 3 2 2 4 4 4 4 5 5 6 9 12 14 16 17 18 19 19 17 16 15 15 15 14 14 13 12 11 11 10 10 11 12 13 14 16 17 17 18 19 20 21 21 21 20 19 18 17 14 12 11 11 11 11 12 14 16 17 18
1 2 1 2 3 3 1 2 2 3 4 5 3 2 2 2 3 3 3 4 4 4 5 5 5 4 3 2 2 2 3 4 4 5 5 5 7 10 13 15 17 18 19 20 20 19 18 18 17 15 13 13 12 12 12 13 13 13 13 13 14 15 16 18 19 20 21 22 22 23 23 23 23 22 21 20 18 15 13 12 12 13 13 13 14 16
2 2 1 3 4 1 2 4 4 3 2 4 4 3 3 2 4 4 3 4 4 4 3 4 5 5 4 3 3 3 3 4 6 6 6 6 9 12 15 16 17 18 19 19 19 20 20 20 19 18 16 15 14 14 15 16 17 17 17 17 18 18 19 21 22 23 25 25 25 26 26 25 25 24 23 23 22 20 18 15 13 13 14 13 14 15
2 3 3 4 4 3 5 5 6 4 2 4 5 3 2 3 5 4 3 3 3 3 4 4 2 3 4 5 5 5 4 5 8 8 7 8 12 15 16 17 18 18 19 19 19 19 20 20 20 19 18 17 17 17 19 20 22 22 23 23 24 25 26 25 25 26 27 28 28 29 28 28 28 27 25 25 24 23 21 19 17 15 15 15 15 15
Wind_Direction
97 108 197 202 207 219 215 185 165 166 126 112 122 164 212 223 268 268 268 278 183 143 224 198 175 215 223 201 187 169 157 162 158 159 169 160 151 161 180 194 201 211 222 198 169 174 184 195 198 193 193 192 194 201 201 197 196 197 198 200 201 200 199 195 184 174 171 166 159 153 148 145 142 139 135 134 137 135 126 116 110 108 104 103 102 100
62 116 231 222 205 206 202 175 145 132 99 78 126 217 263 219 245 263 263 300 288 152 288 127 142 240 257 216 199 167 168 182 172 167 173 164 154 163 185 197 202 209 231 214 171 164 171 183 193 196 197 195 194 199 200 197 195 195 199 200 199 196 198 198 188 177 170 166 164 158 152 149 146 144 142 142 144 140 130 119 110 100 89 96 113 116
29 233 245 228 183 155 144 136 129 129 110 88 123 165 266 243 270 288 279 314 335 120 354 102 123 300 294 239 223 194 188 189 157 158 169 168 162 173 188 196 203 204 219 228 194 165 171 176 184 192 196 201 200 199 201 201 198 196 198 200 198 193 195 198 189 177 168 165 165 159 155 153 148 145 147 149 151 150 146 138 123 98 83 86 107 123
115 255 251 199 144 138 144 126 114 103 104 128 142 142 250 258 277 299 288 323 347 68 119 120 104 349 329 329 264 270 243 105 113 134 145 172 181 188 191 189 201 203 208 224 206 175 176 175 179 186 191 198 200 197 197 198 198 196 197 199 196 192 194 192 183 176 168 162 161 159 158 157 152 149 155 161 162 169 176 169 138 108 118 108 102 129
218 241 189 123 140 157 168 159 132 133 256 253 187 165 222 257 207 215 289 334 344 23 77 86 55 353 353 2 246 284 323 98 125 143 149 175 183 184 192 188 198 202 205 220 213 187 177 180 182 183 184 191 198 199 198 198 198 197 197 197 193 191 190 185 179 175 168 162 159 159 157 155 152 151 158 164 164 170 173 164 139 117 121 119 122 150
245 239 150 133 165 174 171 195 178 164 188 306 238 198 202 214 206 232 333 16 35 10 10 63 60 320 325 308 239 284 303 262 121 163 168 166 169 176 192 193 193 198 206 221 217 179 169 183 184 183 185 189 195 199 201 201 200 198 197 195 191 188 184 179 178 175 170 166 166 166 164 159 157 156 163 167 163 163 160 151 141 126 121 113 115 153
251 239 140 149 156 153 167 231 222 164 127 322 245 201 183 162 142 146 29 52 89 280 324 68 107 220 320 318 276 314 296 274 305 226 194 175 178 184 190 192 189 195 205 219 216 182 170 178 183 189 191 191 195 199 200 199 197 196 195 191 186 183 179 177 178 176 173 171 172 176 175 170 168 168 171 175 169 164 158 151 143 132 122 108 102 136
198 146 79 108 109 119 152 243 227 149 123 232 229 161 145 149 156 148 94 81 176 217 334 15 91 118 328 280 290 340 343 292 292 257 234 205 193 185 185 192 192 195 198 204 208 196 182 182 187 193 196 197 199 196 195 196 195 194 190 183 178 176 175 176 177 180 179 176 174 176 175 173 176 175 174 175 171 165 161 154 146 138 128 114 104 135
189 167 174 127 95 130 195 217 192 150 141 236 198 138 136 144 144 122 97 91 25 100 311 325 32 99 250 276 318 12 60 284 273 249 242 225 209 196 185 185 192 198 196 197 202 199 196 194 194 197 198 199 199 197 198 195 184 165 153 157 166 172 176 177 179 182 181 179 177 176 174 171 171 173 172 171 171 170 170 163 151 142 134 120 115 135
234 204 194 141 124 213 220 211 180 161 167 198 139 100 68 75 78 75 91 106 46 63 228 285 353 103 259 289 336 25 31 277 273 264 249 227 217 206 187 179 185 192 194 193 197 201 206 205 202 201 200 200 199 192 159 99 80 83 109 153 174 179 179 178 181 182 178 178 179 177 177 174 169 169 169 170 174 179 182 176 157 143 135 127 124 135
282 280 188 149 176 200 177 141 170 159 135 133 106 65 44 33 32 48 55 82 68 3 251 266 311 120 208 286 271 353 299 265 270 283 276 238 218 206 186 178 178 180 188 187 185 194 199 201 202 199 202 200 167 108 85 78 80 103 159 192 194 186 180 177 181 182 178 179 184 184 185 184 177 174 173 174 179 183 184 177 159 147 143 141 139 141
334 338 251 249 215 160 112 79 55 31 78 106 85 73 75 8 10 30 359 45 90 268 259 271 287 134 158 255 242 262 279 274 257 264 276 263 239 220 185 174 173 169 173 174 176 182 179 184 189 191 197 172 116 104 104 112 136 161 194 210 205 192 184 181 183 185 182 183 189 192 194 194 190 188 185 183 185 185 180 172 165 157 152 154 155 151
322 262 271 307 268 155 115 83 35 7 28 80 89 89 93 20 15 37 318 21 150 241 261 309 319 170 209 228 215 250 277 283 263 253 263 262 259 250 190 167 159 154 163 170 173 174 169 171 177 180 175 141 124 131 152 169 174 184 201 210 205 194 186 185 187 189 188 189 194 197 199 199 199 200 196 191 188 185 180 177 177 168 156 158 164 162
305 301 317 325 286 184 131 131 152 261 83 126 137 126 117 102 79 169 268 323 233 246 291 324 324 245 267 268 239 266 280 282 285 276 262 248 239 209 121 104 91 83 81 85 73 65 165 164 161 164 150 137 139 152 174 188 185 185 193 198 194 184 182 189 195 195 193 192 196 200 201 202 203 204 200 195 191 185 181 185 188 179 162 159 165 169
183 307 283 201 248 264 152 160 163 156 146 164 157 129 140 153 140 188 213 179 206 239 319 315 307 163 195 280 295 291 294 304 324 323 346 71 98 103 91 79 78 72 67 70 55 26 356 18 77 98 121 136 148 166 182 187 183 180 180 178 179 187 193 196 198 198 197 196 198 201 201 202 205 205 199 194 194 190 186 188 196 195 176 160 165 175
151 240 259 256 263 158 169 182 138 115 95 232 136 109 152 179 140 136 173 167 170 141 30 280 225 202 208 283 307 322 329 353 19 6 53 82 83 87 86 83 85 81 81 88 88 75 7 354 62 86 91 122 151 177 192 187 180 176 168 168 185 199 199 200 205 205 204 202 200 201 200 199 203 203 197 192 195 196 191 190 204 212 201 178 174 187
131 254 281 320 349 159 176 179 142 135 154 167 127 158 214 170 119 111 132 38 81 124 192 257 251 299 346 313 321 359 358 8 33 13 36 90 103 103 102 104 105 103 99 90 96 112 103 322 40 110 116 143 170 189 199 189 180 173 167 173 186 195 198 204 211 211 207 203 200 199 198 199 204 204 199 193 194 196 196 199 212 222 224 215 203 207
143 260 292 1 62 324 307 96 71 59 127 127 175 198 190 96 95 104 109 21 50 143 249 336 269 291 37 177 311 357 356 349 18 358 353 31 80 95 94 102 112 118 120 117 109 109 118 219 260 144 147 175 193 202 202 187 179 180 178 177 175 184 202 209 211 209 206 204 202 199 198 200 205 206 202 194 193 194 190 203 222 225 231 236 234 232
121 240 293 286 150 313 355 66 59 349 43 119 169 164 115 121 136 96 120 130 111 164 267 339 318 251 192 209 272 245 224 253 306 340 10 30 50 70 58 42 64 72 78 104 102 62 117 175 251 162 164 188 200 206 201 185 178 183 185 181 175 183 205 210 209 205 203 205 205 203 203 204 205 207 204 194 193 194 186 194 218 219 219 227 236 241
102 135 274 283 217 330 5 63 144 304 7 49 73 48 41 130 152 152 140 149 145 156 204 316 359 264 226 212 204 215 232 236 253 309 13 69 80 91 93 67 63 77 67 73 92 76 93 134 123 146 177 193 200 204 196 180 175 178 182 183 180 187 206 212 209 203 201 203 203 205 208 208 207 208 207 200 201 204 196 198 211 213 212 214 226 243
78 128 220 290 337 35 39 37 191 188 128 70 56 36 20 66 119 144 88 90 128 139 169 167 249 266 255 219 207 238 246 224 211 248 308 66 102 106 117 114 107 103 94 85 92 91 87 99 111 139 165 182 191 195 187 178 173 173 178 183 185 190 202 210 209 203 200 198 200 206 208 209 210 208 208 206 206 209 208 205 209 214 218 216 221 238
118 141 177 299 5 60 239 289 271 212 169 139 132 147 143 124 122 124 109 300 110 121 162 159 189 262 268 252 254 269 253 216 179 139 335 345 73 85 98 122 119 103 103 101 92 86 73 75 93 126 147 162 172 178 179 177 175 173 175 182 187 191 200 209 209 201 200 203 206 207 204 207 213 212 212 210 206 209 209 204 204 214 225 227 229 235
138 113 103 55 12 226 263 299 329 313 114 107 105 120 130 121 110 124 171 219 107 92 154 123 128 255 269 287 287 283 247 190 128 117 118 31 54 66 65 82 85 84 89 87 83 80 73 75 88 111 128 143 159 169 174 179 182 180 177 180 187 195 205 212 208 199 202 208 213 213 211 218 221 218 218 213 206 210 213 211 209 214 225 233 236 237
93 93 82 31 315 312 306 331 351 6 64 74 52 54 89 65 86 137 171 172 133 151 148 90 116 252 288 325 332 326 333 98 82 86 100 77 56 74 78 71 73 80 77 75 82 78 68 71 76 84 96 112 135 155 166 174 184 188 188 190 195 202 208 210 206 202 203 209 216 219 223 228 228 223 221 217 212 211 214 217 219 220 228 237 243 244
34 77 95 98 32 348 339 344 341 347 30 67 43 10 51 71 72 108 130 79 107 186 154 127 192 249 289 340 5 10 27 52 55 63 74 55 39 62 69 63 69 80 80 79 82 78 73 73 79 84 85 90 103 114 125 147 171 184 192 199 199 199 201 201 202 203 205 210 218 223 226 227 229 226 219 217 215 211 210 218 225 228 232 241 250 252
106 73 100 127 146 171 182 215 245 264 17 43 59 28 47 93 103 142 125 87 131 194 142 139 195 243 305 350 6 7 16 25 19 31 49 40 25 32 47 55 54 60 65 58 51 58 62 61 69 79 81 82 86 81 74 86 127 154 167 183 192 195 196 197 200 202 204 208 214 219 221 222 227 225 216 214 214 210 210 221 228 227 231 247 256 254
105 67 63 112 134 179 189 218 235 149 92 60 77 42 34 57 98 102 93 111 176 164 152 219 186 153 348 349 355 354 0 9 3 9 26 32 24 17 22 35 37 39 41 36 33 29 24 22 24 25 32 49 64 76 83 85 102 134 146 154 165 178 190 198 202 201 201 203 206 209 210 214 220 217 212 211 209 206 211 222 226 222 228 241 247 245
102 49 14 70 58 18 189 205 30 77 86 74 46 22 27 33 50 77 88 167 146 124 212 263 152 105 10 344 345 339 342 355 5 7 14 23 20 18 22 27 31 30 27 29 30 25 22 19 11 10 12 19 31 51 75 88 101 123 137 143 149 158 175 192 197 197 198 201 203 203 203 208 214 209 206 208 206 205 212 220 223 222 226 234 241 245
108 63 4 65 38 16 32 48 55 59 52 47 30 4 24 47 52 75 91 301 120 136 198 212 91 82 343 338 341 329 330 349 6 11 23 32 25 29 42 41 33 28 27 29 25 21 26 19 7 11 15 19 27 33 49 71 90 109 121 131 143 152 163 180 190 191 193 197 202 202 200 206 213 212 212 213 209 206 208 215 220 221 223 230 239 242
103 96 112 100 51 5 4 31 59 63 47 36 19 5 43 70 68 74 73 10 75 117 149 118 90 66 329 317 333 332 336 9 38 36 38 38 32 43 55 50 41 36 31 31 27 26 32 27 20 25 25 25 27 28 34 47 65 85 101 112 128 146 157 170 182 188 193 199 203 201 198 204 212 217 220 219 213 210 211 214 217 214 213 221 235 242
83 141 162 107 76 337 327 9 56 73 79 64 24 10 48 76 69 51 32 38 68 89 117 105 89 68 1 351 1 2 23 52 53 46 44 41 37 56 64 55 49 48 39 35 35 35 40 40 36 37 38 34 31 31 32 36 51 68 80 94 111 130 153 169 179 186 194 199 202 205 207 210 215 218 222 220 214 211 214 217 217 217 220 227 240 251
69 127 145 87 102 254 301 67 99 94 89 84 41 10 25 68 89 70 22 31 89 138 142 107 99 118 275 2 30 43 54 58 52 44 46 46 44 59 67 60 54 52 45 41 38 40 46 46 44 45 44 41 39 38 37 38 48 57 62 75 93 109 144 172 183 190 200 205 209 214 216 218 221 220 219 217 212 213 220 224 224 222 224 229 235 245
78 134 147 107 127 179 80 116 136 112 98 119 278 333 21 92 123 107 50 14 18 126 148 142 154 180 223 43 71 63 59 60 54 43 43 45 46 55 58 55 47 35 27 24 17 21 27 29 46 52 45 42 44 45 45 47 50 49 52 62 77 95 123 151 165 176 191 197 201 205 199 199 209 210 204 202 201 204 212 217 214 205 199 197 195 195
56 105 141 123 123 154 162 71 92 106 147 227 272 271 163 140 127 108 80 15 4 38 116 130 124 117 88 84 92 83 73 71 65 54 51 48 51 56 52 47 43 35 27 19 9 6 4 4 20 38 42 43 46 47 47 48 46 45 47 52 59 69 80 96 117 124 128 140 149 168 175 179 188 189 188 192 191 190 194 196 189 180 176 168 161 155
63 76 124 93 104 144 120 58 91 194 228 264 309 332 117 115 112 104 89 47 21 32 72 92 95 108 112 107 106 102 99 97 82 63 50 43 48 62 61 50 44 44 38 27 20 14 8 5 7 11 22 35 40 37 35 34 31 31 34 36 41 49 54 57 70 78 76 89 115 145 167 180 187 188 188 188 185 181 177 174 166 158 153 145 139 137
119 113 121 76 92 138 105 94 153 231 270 304 330 352 77 79 77 85 71 33 13 19 58 92 94 115 126 128 132 122 118 108 82 59 45 40 39 51 64 57 48 51 46 36 33 23 18 23 24 17 16 26 29 22 20 22 19 18 21 19 19 31 45 50 51 50 45 41 41 60 139 161 164 168 171 168 165 161 158 158 156 151 149 146 142 140
123 124 114 79 98 138 120 127 202 355 354 245 285 338 69 3 330 112 105 34 346 350 51 112 91 49 41 7 314 329 47 70 60 37 20 27 30 34 51 52 48 50 41 33 37 36 35 43 46 39 30 30 29 19 15 19 11 3 9 3 356 12 38 48 49 47 37 30 31 28 16 202 171 161 161 161 159 160 161 162 164 163 163 162 156 152
72 116 160 153 156 112 100 94 41 22 281 225 227 270 274 239 218 155 116 61 319 328 336 129 107 49 23 9 337 336 38 57 44 348 334 358 11 19 29 26 26 31 27 23 25 28 33 37 40 39 34 31 31 23 15 14 3 349 350 341 333 349 17 29 44 51 29 20 27 35 30 15 353 183 185 191 187 180 175 173 173 171 170 171 169 164
41 46 103 119 130 112 112 130 168 185 223 230 238 277 299 254 190 122 81 343 267 329 3 91 103 71 51 45 16 43 78 77 28 273 297 329 343 358 11 6 7 14 17 20 21 19 21 24 24 26 26 25 26 22 14 8 0 350 346 342 336 338 340 338 326 301 320 350 358 357 7 11 8 9 316 237 221 208 196 187 181 176 173 173 175 174
24 17 49 94 110 101 113 136 191 195 223 246 255 284 300 237 137 101 92 244 246 359 8 86 108 99 75 58 46 67 96 143 202 238 280 318 335 351 3 358 355 358 4 10 12 9 9 11 10 13 18 21 19 14 7 4 2 356 346 335 328 330 333 329 309 284 281 289 286 264 270 287 291 296 341 284 241 225 217 209 199 193 191 188 195 208
13 14 49 107 94 71 100 113 318 255 247 259 283 298 306 146 121 124 206 228 220 37 22 81 101 71 21 40 58 84 128 184 200 253 319 343 346 346 355 358 357 359 1 1 360 357 355 356 359 359 1 4 4 359 355 354 358 1 352 338 330 332 337 334 319 297 282 277 268 258 259 262 262 260 258 257 253 229 210 209 203 200 201 203 214 226
13 14 22 73 69 62 109 108 72 270 282 328 309 306 332 101 163 207 219 206 141 84 53 69 87 51 24 32 46 84 313 334 350 340 338 347 343 335 346 355 359 360 358 355 355 354 347 339 338 340 339 340 342 343 342 338 339 345 345 342 342 342 339 333 331 324 307 290 276 267 262 257 254 255 252 247 250 252 247 237 226 222 222 220 220 221
72 59 27 55 82 74 76 69 90 201 295 335 321 314 3 89 174 198 161 98 103 77 41 38 68 120 73 36 7 313 296 315 326 320 318 323 327 334 343 350 351 349 348 349 350 350 344 332 322 321 323 324 324 327 328 327 324 321 320 322 325 323 319 320 322 322 322 319 306 289 275 260 250 248 245 242 246 251 248 239 229 223 219 215 211 206
40 110 150 213 353 90 103 102 152 199 286 325 48 108 56 84 144 140 90 64 41 35 26 6 345 331 30 20 347 319 286 290 308 319 322 322 329 334 336 339 341 339 340 343 343 344 343 334 321 313 309 307 310 315 316 316 314 311 309 310 310 307 306 307 310 311 312 314 315 314 306 283 258 250 245 240 237 232 226 218 212 208 205 204 199 195
5 114 134 126 60 92 122 153 161 192 297 346 55 92 98 87 87 113 124 125 145 186 114 31 342 335 350 357 342 332 324 324 329 331 331 326 322 326 330 331 333 335 336 337 338 339 337 333 327 319 311 304 304 306 308 307 303 299 301 305 308 308 307 306 307 308 308 308 309 311 309 302 289 270 256 248 240 231 224 219 215 209 204 202 198 195
234 99 79 85 104 78 59 69 112 155 304 33 54 71 108 119 138 146 137 141 159 132 122 116 320 335 1 17 4 341 327 331 336 332 332 333 326 326 329 328 327 330 331 331 334 334 330 328 326 322 317 312 308 306 304 300 294 293 297 302 306 311 312 310 309 309 309 309 309 310 309 306 300 289 275 266 260 254 247 240 234 226 217 209 205 204
280 100 77 87 113 97 82 155 176 179 196 115 87 76 79 79 76 98 115 132 125 102 90 62 31 28 33 34 17 328 308 327 343 333 329 336 330 326 328 325 322 324 325 324 326 326 323 319 317 316 315 313 309 306 301 293 285 286 293 295 299 304 306 306 306 306 305 305 305 306 306 305 304 299 291 282 275 272 269 262 252 243 233 222 215 210
310 74 85 85 79 93 188 205 189 32 316 317 83 127 112 76 67 69 83 111 114 95 73 59 63 69 53 36 28 320 308 327 337 324 320 321 317 317 318 316 315 317 319 320 321 321 318 315 310 307 307 307 307 303 296 287 283 286 290 292 295 299 300 299 299 300 299 299 300 300 299 299 299 299 297 293 288 283 277 271 266 259 249 237 228 221
12 51 96 100 76 74 174 185 96 36 336 316 307 253 223 161 122 95 72 80 87 81 75 68 67 76 82 72 63 31 339 323 316 316 315 311 309 309 309 309 310 311 313 315 317 317 316 312 307 301 298 300 304 303 297 294 292 293 296 298 299 301 300 297 296 295 294 293 293 292 292 293 292 291 292 293 292 291 287 277 267 264 263 256 245 237
60 86 126 97 94 124 222 185 150 135 260 260 250 251 245 185 134 107 77 63 54 53 70 65 45 40 45 34 10 356 332 312 314 316 308 298 300 302 303 304 305 306 308 311 311 311 309 306 302 297 293 294 297 298 297 298 297 297 299 300 301 301 300 296 295 293 290 289 288 287 286 287 287 287 288 288 288 289 288 283 270 260 257 255 248 241
119 154 164 136 142 213 226 192 162 145 183 228 220 212 210 157 125 115 110 95 75 79 103 98 53 358 346 338 331 325 308 299 308 310 298 294 298 300 301 302 301 302 306 308 308 308 307 304 298 293 292 296 299 298 296 296 296 297 299 300 300 300 298 293 289 285 282 281 280 280 281 282 282 282 282 282 282 282 282 280 276 265 255 252 249 243
Height
750 755 760 759 759 756 755 759 760 761 763 763 766 767 769 770 764 756 750 746 749 752 753 754 751 746 750 757 756 752 754 758 761 763 764 766 769 771 772 770 770 770 769 771 774 777 778 780 781 782 782 782 784 784 785 787 788 791 793 796 799 801 804 805 805 805 807 808 810 812 813 814 815 815 816 817 818 819 819 820 820 820 821 821 821 821
752 759 759 753 754 755 756 763 763 763 764 763 767 768 768 770 762 752 749 748 749 750 755 759 752 749 755 759 757 754 755 757 759 761 763 764 767 770 770 770 769 769 770 771 774 776 777 779 780 782 782 782 783 783 784 787 788 790 793 795 798 800 803 804 805 805 806 808 809 811 813 814 815 816 817 818 819 819 820 821 821 821 822 822 822 822
758 758 752 750 758 760 760 764 763 762 764 765 770 769 765 765 760 753 749 750 751 747 752 760 756 755 760 760 759 757 755 756 758 760 762 763 766 768 769 769 770 770 771 771 772 774 776 778 780 781 782 782 783 784 785 787 788 790 793 795 798 799 801 803 804 805 806 807 809 810 812 813 815 816 817 819 820 820 821 821 822 822 823 823 823 823
763 756 748 753 760 759 759 764 763 763 765 767 769 766 762 761 761 756 749 750 753 751 752 755 755 758 760 759 759 758 757 757 759 761 762 764 766 767 767 768 769 771 772 771 771 773 775 777 779 780 781 782 783 784 785 786 788 789 791 794 796 797 800 801 802 804 805 806 808 810 812 813 815 816 818 819 820 821 822 822 822 823 823 824 824 825
757 751 750 755 756 754 756 761 764 764 764 766 765 762 757 754 755 755 753 752 752 755 755 751 754 759 759 761 761 757 757 757 760 762 763 765 767 767 768 768 768 769 771 771 770 772 774 775 777 778 779 781 782 784 784 785 786 787 790 791 794 795 797 799 801 803 804 805 807 809 811 813 815 816 818 819 821 822 822 822 822 823 824 825 825 826
751 749 751 752 754 755 754 757 760 760 762 763 758 754 751 748 750 752 754 755 752 755 758 756 762 766 759 757 760 759 758 758 761 763 764 766 768 768 769 769 769 769 769 769 770 772 774 775 776 777 778 779 780 782 782 783 784 786 788 789 791 793 795 798 800 802 803 804 806 808 810 812 814 816 818 819 821 822 822 822 823 823 824 825 826 827
748 748 749 749 752 755 755 755 755 756 762 762 753 749 751 750 750 750 750 754 757 759 763 762 764 770 763 753 758 763 761 761 761 762 764 765 766 767 768 769 769 768 768 768 769 772 774 775 775 776 776 777 778 780 781 782 784 785 787 788 790 793 795 797 800 801 802 803 805 807 810 812 813 815 817 819 821 822 823 823 823 824 824 825 826 827
745 746 748 748 749 754 755 752 750 753 758 756 750 750 751 748 748 750 749 753 761 761 762 762 759 767 769 758 761 766 762 761 762 761 763 762 763 765 765 767 768 767 767 768 768 770 772 773 774 774 775 776 777 779 781 783 785 787 788 789 792 795 797 798 800 801 801 803 805 808 810 813 815 816 818 820 821 823 823 824 824 825 825 826 827 827
743 743 743 743 746 751 748 744 746 748 748 747 750 753 751 749 750 752 751 754 765 764 761 764 762 768 773 763 763 767 762 760 759 758 760 760 760 762 763 765 766 766 766 767 767 768 769 770 771 773 775 776 778 781 783 787 790 792 794 796 797 798 799 800 801 802 803 804 806 809 812 815 817 818 820 821 822 823 824 825 825 825 826 827 827 828
742 740 737 739 742 742 738 740 745 742 742 746 752 755 753 756 758 757 757 755 762 767 765 768 769 770 775 768 763 766 763 761 759 757 759 759 758 759 761 762 763 765 766 766 767 768 768 769 770 773 775 777 781 785 790 793 796 799 802 804 802 800 799 800 802 804 805 806 808 811 813 815 817 819 820 822 823 824 825 825 826 826 826 827 828 828
739 738 737 736 736 735 733 742 749 744 745 747 748 750 751 756 757 760 765 761 764 773 770 773 775 770 774 775 770 768 766 765 764 757 755 755 755 756 758 760 761 763 764 766 767 768 768 769 771 773 775 778 784 789 793 796 799 803 805 804 802 802 802 802 804 805 806 807 809 811 813 815 816 818 819 821 822 823 824 825 826 826 827 828 828 829
739 738 738 732 730 733 733 740 748 746 747 746 745 750 755 761 762 764 768 766 773 780 773 776 779 770 772 777 776 772 769 769 768 760 755 756 755 754 756 757 759 761 763 765 767 768 769 770 772 773 775 781 786 789 791 793 795 799 802 802 802 803 804 803 805 805 805 806 808 810 812 813 815 816 818 819 821 822 823 825 826 827 827 828 829 830
739 735 736 732 728 730 731 739 747 747 746 746 748 754 763 773 776 776 780 780 782 780 775 779 778 770 769 771 774 776 770 768 768 764 761 761 757 755 756 757 758 760 762 765 767 767 769 769 771 773 776 782 785 786 788 789 789 792 797 799 800 801 802 803 804 803 803 804 806 809 811 813 815 816 818 819 821 822 823 825 826 827 827 828 830 831
744 739 735 731 729 727 729 738 745 747 746 745 748 753 764 779 786 790 798 798 789 778 778 782 776 770 770 768 770 773 769 766 766 764 763 761 758 756 758 760 761 763 765 769 772 773 772 771 772 774 777 781 784 785 786 786 787 790 792 795 798 800 802 803 803 803 803 803 805 808 810 812 815 816 818 820 821 823 824 825 826 827 828 829 830 832
754 749 736 730 731 728 727 731 734 737 742 747 750 750 757 766 774 784 790 786 783 781 781 780 775 774 772 769 769 768 766 765 763 763 762 760 759 758 759 762 763 766 768 770 775 781 782 779 776 778 779 781 783 784 784 785 787 789 790 795 800 800 799 800 802 803 804 804 805 807 809 812 814 816 818 820 822 823 824 826 827 828 829 829 831 832
758 751 733 729 732 728 727 730 729 732 743 755 755 750 753 752 756 777 788 783 781 782 783 781 778 779 774 769 769 766 766 765 763 763 762 761 761 760 761 764 765 766 768 767 769 777 785 785 780 779 782 785 786 784 784 785 787 788 790 794 797 797 798 800 802 802 803 804 804 806 809 811 814 816 818 820 822 824 825 827 828 829 830 830 831 833
756 747 733 731 731 727 728 729 727 730 740 754 756 750 753 750 749 770 791 794 788 781 786 790 782 778 776 771 767 766 767 766 764 765 765 763 762 760 762 763 764 765 767 768 768 770 777 784 783 777 778 785 788 786 785 785 788 789 790 792 794 795 798 800 801 801 803 804 806 808 810 812 814 816 818 820 822 825 826 827 828 830 831 831 832 833
748 744 736 733 731 729 730 729 728 731 735 746 750 746 751 755 753 761 777 792 791 783 787 792 787 783 781 776 769 767 769 768 766 765 766 766 763 762 764 763 762 763 764 768 771 770 773 781 785 778 773 778 784 784 784 786 788 789 790 791 793 796 797 797 800 801 803 805 806 808 810 812 814 816 818 820 822 825 827 827 829 830 831 832 832 833
745 745 740 736 736 733 730 731 734 737 736 738 740 741 747 754 757 762 772 782 788 791 792 792 795 791 780 775 770 767 769 768 767 766 765 766 766 767 769 767 766 766 767 769 773 774 775 778 781 777 772 776 781 782 783 785 787 788 789 791 793 796 796 796 800 802 803 805 806 808 811 812 814 816 818 819 822 825 826 827 828 830 831 832 832 833
744 748 745 738 738 737 733 735 740 741 740 740 740 743 748 752 757 763 768 770 775 790 797 791 793 786 774 772 770 766 768 767 767 769 768 769 770 769 770 770 770 771 771 773 774 776 777 777 777 776 775 778 781 782 784 785 787 788 790 792 794 796 795 797 800 801 803 804 806 808 809 811 812 814 817 818 820 823 825 825 827 829 831 831 832 833
742 749 748 740 738 741 742 743 744 742 741 743 743 747 751 756 762 762 769 774 771 779 791 791 789 780 772 774 771 766 767 766 767 771 772 772 772 770 770 771 772 772 772 775 776 776 778 778 778 778 778 780 781 782 784 785 787 789 790 792 794 795 795 796 799 801 803 803 804 805 806 808 810 812 815 817 818 822 824 825 826 828 830 831 832 833
741 746 748 745 744 746 748 748 748 744 741 742 744 749 752 757 760 760 771 782 776 775 784 785 781 777 775 779 776 770 769 767 769 772 774 776 774 773 773 771 771 772 772 775 776 777 778 779 780 780 779 780 781 782 783 785 787 789 790 792 793 794 795 796 799 801 802 802 802 804 806 808 810 812 814 816 817 821 823 825 826 827 829 831 832 833
739 741 746 752 753 752 751 747 749 749 745 743 747 756 759 756 753 753 763 774 776 783 789 781 776 776 779 783 780 775 772 769 769 771 773 776 775 775 775 773 773 774 775 777 777 778 779 780 781 782 781 781 782 782 784 785 787 788 790 792 793 795 796 797 800 801 802 802 803 805 807 808 810 812 814 816 817 820 823 825 826 826 828 830 831 832
738 741 749 757 756 751 746 744 747 750 748 746 752 761 762 758 757 756 760 766 770 779 782 777 777 776 777 782 781 776 773 770 770 772 774 777 777 776 776 776 776 777 777 778 779 780 780 780 781 782 782 783 783 785 786 786 787 789 790 793 793 795 796 798 800 801 802 803 803 805 806 807 809 811 814 816 817 819 822 824 825 825 827 828 830 831
739 746 751 758 764 763 757 753 751 749 750 752 758 764 764 763 763 762 766 767 767 775 775 769 774 778 778 782 781 777 775 772 773 775 776 778 779 778 778 778 779 779 779 780 780 780 782 782 783 783 783 784 784 786 788 788 789 790 791 793 794 795 796 798 799 801 802 803 804 805 806 808 810 811 814 816 817 819 821 823 824 824 825 827 829 830
743 756 755 755 765 769 766 763 759 755 757 759 760 762 765 767 763 759 763 760 762 779 779 766 770 780 781 781 781 781 781 778 777 778 778 781 782 782 782 781 781 781 781 782 782 782 784 784 784 785 785 785 785 786 788 789 790 791 791 793 794 795 796 797 799 800 801 803 804 805 807 809 811 812 814 815 816 818 820 821 822 823 824 826 827 829
747 764 764 759 761 763 762 762 762 759 759 760 759 757 762 768 764 759 760 759 764 778 778 772 777 781 783 788 788 788 788 785 784 783 781 783 784 784 785 783 783 784 784 785 785 786 787 786 786 787 787 787 788 789 790 792 792 793 793 793 794 795 796 797 798 799 801 802 804 805 807 809 810 811 813 814 815 816 819 820 820 821 823 825 826 827
746 763 768 767 768 769 767 765 764 762 762 764 764 760 760 764 762 757 759 767 772 771 772 779 783 781 788 799 799 796 795 792 791 789 787 786 787 786 786 785 786 787 788 789 790 790 790 790 789 790 789 790 790 791 793 794 794 795 795 794 794 795 796 797 798 799 800 802 803 805 806 808 809 810 812 814 814 816 818 819 819 820 822 824 824 825
746 761 768 768 770 771 770 768 765 767 772 775 775 771 764 761 762 761 768 780 776 765 772 784 786 789 800 806 804 802 801 797 797 796 793 791 792 791 789 789 790 791 792 793 794 794 794 794 794 793 793 793 793 793 795 795 795 795 795 794 794 795 796 797 798 799 800 801 802 804 806 807 808 810 811 813 813 815 816 818 819 820 821 822 823 824
748 762 769 769 771 774 773 771 768 768 773 777 782 784 777 771 775 777 784 793 786 780 790 792 790 801 809 807 806 805 802 801 800 799 797 797 798 797 795 796 797 798 798 798 799 798 798 797 798 797 796 796 795 795 795 795 796 796 795 795 795 795 796 797 798 799 800 801 803 804 806 807 808 809 810 811 812 813 815 817 818 819 820 821 822 823
748 763 769 767 773 782 780 776 773 770 772 776 781 788 784 777 782 787 791 797 791 793 803 795 790 805 810 805 808 806 802 802 801 801 804 804 804 802 801 804 804 803 803 803 802 802 801 800 800 799 799 798 797 796 796 796 797 796 796 796 796 797 798 798 799 800 801 802 803 804 806 807 807 808 809 810 811 812 813 815 816 818 819 820 821 821
749 764 770 767 773 784 785 781 780 778 779 780 781 787 787 780 784 792 798 801 796 795 797 789 789 804 808 806 810 808 805 805 806 807 809 808 807 806 806 807 807 806 806 805 805 804 803 802 801 801 800 799 798 798 797 797 797 797 798 798 798 799 799 800 801 801 802 802 803 804 805 806 807 808 808 810 811 811 812 813 814 816 818 819 819 820
755 760 765 766 771 782 786 785 787 783 780 783 788 795 799 796 796 799 803 808 809 802 794 788 794 807 810 809 811 811 809 810 811 813 812 811 811 810 810 811 811 810 810 808 808 807 805 804 803 802 801 800 800 800 800 799 799 799 800 800 800 800 801 802 802 802 803 803 803 803 804 805 806 807 808 809 810 810 811 811 813 815 817 818 819 820
759 757 762 767 768 778 786 786 786 782 779 788 801 805 803 801 800 800 805 813 813 808 803 802 807 812 812 811 813 813 814 815 816 817 816 815 815 813 814 815 813 813 813 812 811 810 808 807 805 803 802 802 802 802 802 802 802 802 803 802 802 802 802 803 804 804 804 804 804 804 804 805 806 807 808 809 809 810 810 811 813 814 816 817 818 819
758 758 766 770 770 779 787 783 780 784 789 800 809 807 802 803 804 804 809 815 813 811 811 810 811 812 812 814 814 814 816 817 817 818 818 817 817 816 816 816 815 815 815 814 814 813 811 810 808 806 804 803 803 803 803 803 803 804 805 804 804 803 803 804 804 805 805 805 805 806 806 806 807 807 808 809 809 810 810 811 813 814 815 816 817 819
756 758 766 774 779 782 783 779 781 792 803 807 805 803 802 804 803 798 801 809 814 814 813 812 813 813 813 813 813 813 815 816 815 817 819 819 819 818 817 818 818 817 816 816 816 816 815 813 812 810 807 805 805 804 804 804 804 805 805 806 806 806 805 805 805 806 806 807 807 807 807 808 808 808 809 809 810 810 811 811 813 813 815 816 817 819
758 758 761 771 782 786 787 796 805 808 809 807 804 805 806 806 806 802 802 809 815 815 815 814 813 813 812 811 813 814 814 812 813 817 819 820 820 819 819 819 819 818 818 818 817 817 816 815 813 812 809 807 806 806 806 806 806 806 807 808 809 809 808 807 807 807 808 809 808 808 809 809 809 809 809 810 811 811 812 812 813 814 815 816 817 818
762 761 759 764 783 794 793 803 813 808 802 803 806 809 809 809 811 808 805 809 814 815 817 815 812 813 812 809 811 814 811 810 815 820 820 820 820 819 819 819 819 818 818 817 817 816 815 814 813 811 809 808 807 807 807 807 807 808 808 809 810 810 809 808 808 809 810 810 810 809 809 810 810 810 810 811 812 812 812 813 813 814 815 816 817 818
766 770 766 763 779 791 782 783 797 799 799 807 811 809 809 811 811 807 804 808 814 817 818 817 814 815 815 811 812 812 809 811 819 822 820 820 820 819 819 819 818 818 818 818 817 817 815 815 814 812 811 809 809 809 808 808 808 808 808 809 810 809 809 809 809 810 810 810 810 809 809 810 810 811 811 812 813 813 813 813 813 814 815 816 817 818
771 775 773 769 779 788 781 783 800 808 809 814 814 808 809 812 810 804 801 807 815 818 819 818 816 816 817 815 814 812 811 814 819 821 821 821 820 819 819 818 818 818 818 818 818 817 816 816 815 814 813 812 811 811 810 809 809 809 809 808 808 809 809 809 808 809 808 809 809 809 809 810 810 811 811 812 812 812 813 813 813 813 814 815 816 817
785 787 789 787 790 794 792 796 809 815 814 814 812 809 809 809 806 802 804 813 819 820 820 820 818 817 818 816 813 814 817 819 820 821 822 821 821 820 820 819 818 818 818 817 817 817 816 816 816 815 815 814 814 813 812 811 810 810 809 809 808 808 808 808 808 807 807 807 808 808 808 809 809 810 810 811 811 811 812 812 812 813 813 814 815 816
794 796 799 800 801 805 806 805 809 814 814 814 813 811 806 804 805 809 815 821 822 820 821 822 821 821 821 819 818 819 820 821 822 822 822 822 822 821 820 819 818 818 817 817 817 817 816 816 816 816 815 815 815 814 813 812 811 810 810 809 809 808 808 808 808 807 806 806 806 806 806 807 808 808 808 809 809 810 811 811 811 812 812 813 814 815
799 800 804 807 808 810 811 808 807 810 814 814 812 810 808 809 813 818 821 822 821 821 822 822 822 823 823 822 822 822 822 822 823 822 822 822 822 822 821 820 819 818 818 818 817 817 816 816 815 815 815 815 815 814 813 812 811 810 810 809 809 808 808 808 807 807 806 805 805 804 804 805 805 806 806 807 807 807 808 809 809 809 810 810 811 812
801 801 803 809 810 805 804 809 813 815 817 815 811 811 815 816 818 819 820 821 822 822 822 822 822 823 823 823 823 823 822 822 822 823 823 823 822 822 821 821 820 819 819 818 817 817 816 815 815 814 814 814 814 813 812 811 810 810 809 809 808 808 807 807 806 806 806 805 804 804 803 803 803 803 804 804 805 805 806 806 806 806 807 808 808 810
804 803 802 808 815 812 809 815 821 820 820 818 814 815 819 819 819 820 820 821 822 822 823 823 822 822 823 824 824 823 822 822 822 823 823 822 822 822 821 821 821 820 819 818 817 817 816 814 814 813 812 812 812 812 811 810 809 809 808 808 808 807 806 806 805 805 804 804 804 803 803 803 802 802 802 802 803 804 804 805 805 804 804 805 806 807
808 807 805 811 818 818 816 819 822 821 821 820 818 819 820 819 820 821 821 822 823 823 824 825 824 824 825 825 825 824 823 823 822 822 822 822 822 821 820 820 820 819 819 818 817 817 815 814 813 812 811 811 811 810 810 809 808 808 807 807 807 806 806 805 804 804 803 803 803 802 802 802 802 801 801 801 801 802 802 803 803 803 802 803 803 804
807 806 809 813 815 816 818 821 822 821 821 821 820 820 820 820 822 822 821 822 823 824 825 825 825 826 826 826 826 826 825 825 824 823 823 822 821 820 819 819 818 818 818 817 817 816 815 813 812 811 810 809 809 809 808 808 807 807 806 806 805 805 804 804 803 803 802 801 801 800 800 800 800 800 800 799 799 799 800 800 801 801 801 801 801 802
807 805 809 815 816 817 820 821 821 821 822 821 821 821 821 821 822 823 823 824 824 825 827 827 827 828 828 828 829 828 827 827 827 825 824 823 822 821 820 818 818 817 816 815 815 815 814 812 811 810 809 808 808 807 807 806 806 805 805 804 804 803 802 802 801 801 800 800 799 798 798 798 798 798 798 798 798 798 798 798 799 798 799 799 799 799
809 808 812 817 819 822 822 821 822 823 822 821 822 822 822 822 823 823 824 825 825 826 827 828 828 828 828 828 828 828 827 827 826 826 825 824 823 822 820 819 818 817 815 815 814 813 812 811 810 809 808 807 807 806 805 805 804 803 803 803 802 802 801 800 799 798 797 797 797 796 796 796 796 796 796 795 795 796 796 796 796 796 797 797 797 798
810 811 816 818 818 819 818 818 820 821 819 820 821 821 822 823 823 823 824 825 825 826 827 827 827 827 827 828 828 827 827 827 827 827 826 824 823 822 820 819 817 816 815 814 812 811 811 809 808 807 806 805 805 804 803 803 802 802 801 801 801 800 799 798 797 796 795 794 794 793 793 793 793 793 793 793 793 793 794 794 794 794 794 795 796 796
809 811 813 812 812 814 814 815 818 818 817 819 820 820 822 823 823 824 825 825 826 827 827 827 828 828 828 828 828 828 828 827 827 826 825 824 823 821 819 818 816 814 813 812 810 809 808 807 806 805 803 802 802 801 800 800 799 799 798 798 798 797 796 796 795 793 792 791 791 790 790 790 789 790 790 790 790 791 791 792 792 792 792 793 793 794